Захмет

Туркменистан     37°46′07″N   62°32′05″E
В апреле 2022 года жителям России запретили посещать сайт meteo.paraplan.net по решению Генеральной прокуратуры. Аудитория сайта уменьшилась в 10 раз. Владельцы сайта не видят смысла в поддержке погодного сервера в таких условиях. Сайт будет закрыт в октябре.
темп.,
°C
ветер,
м/с
пор.,
м/с
влажн.,
%
обл.,
%
осадки,
мм/ч
давл.,
гПа
погр.,
м
6 октября, чт
чт623:00+14ссв44160 0.0 102229
02:00+13с44210 0.0 102228
05:00+11с44280 0.0 102220
08:00+12ссв35280 0.0 1023127
11:00+20ссв34170 0.0 1022651
14:00+24с45110 0.0 10191306
17:00+25с55100 0.0 10191426
20:00+18ссв44160 0.0 102024
7 октября, пт
пт723:00+15ссв44210 0.0 102016
02:00+12св22260 0.0 101910
05:00+10с12300 0.0 102011
08:00+14ссз22240 0.0 102011
11:00+21сз11150 0.0 1021719
14:00+25ссз22100 0.0 10191405
17:00+25ссз4490 0.0 10181508
20:00+18ссз44150 0.0 102012
8 октября, сб
сб823:00+16ссз33170 0.0 102111
02:00+14ссз23215 0.0 102111
05:00+12с22245 0.0 102111
08:00+16ссз22210 0.0 102211
11:00+23ссз22120 0.0 1023739
14:00+26ссз4470 0.0 10211631
17:00+26с5570 0.0 10201657
20:00+19ссв4480 0.0 102118
9 октября, вс
вс923:00+17св44100 0.0 102120
02:00+15св34120 0.0 102114
05:00+13св44150 0.0 102117
08:00+15св34180 0.0 102269
11:00+22ссв44150 0.0 1022668
14:00+26ссв44120 0.0 10201439
17:00+26с55130 0.0 10191622
20:00+19ссв55200 0.0 102033
10 октября, пн
пн1023:00+17ссв44230 0.0 102036
02:00+15ссв33280 0.0 101914
05:00+12ссв22330 0.0 101910
08:00+15ссв11290 0.0 102011
11:00+22зсз11170 0.0 1019526
14:00+26ссз11120 0.0 10161193
17:00+27св22110 0.0 10151234
20:00+20всв33150 0.0 101511